Location: Gwatt
(46.7204°N, 7.6223°E)
Time: 17:26:30
(UTC+00:00)

Courier 1B Rocket - Pass Details

Date: 21 January 2021
Orbit: 920 x 1202 km, 28.3° (Epoch: 05 March)

Event Time Altitude Azimuth Distance (km) Brightness Sun altitude
Rises 10:37:36 0° 245° (WSW) 3,970 8.3 22.0°
Reaches altitude 10° 10:41:35 10° 225° (SW) 3,055 8.1 22.1°
Maximum altitude 10:45:53 16° 191° (S) 2,654 8.8 22.3°
Drops below altitude 10° 10:50:16 10° 156° (SSE) 3,117 9.5 22.5°
Sets 10:54:25 0° 136° (SE) 4,090 9.2 22.7°
